EW6074 Weather Reports


time (UTC)temp
C
wind
direction
speed
KPH
gust
KPH
rain 1hr
cm
rain 24hr
cm
rain mn
cm
humidity
%
barometer
mb
20260507191832 12 289 17.7 22.5 0.00 0.13 0.13 45 1004.0
20260507191328 12 171 9.7 27.4 0.00 0.13 0.13 50 1003.7
20260507190825 12 199 8.0 24.1 0.00 0.13 0.13 46 1004.0
20260507190323 11 317 3.2 11.3 0.00 0.13 0.13 47 1004.0
20260507185822 12 275 3.2 11.3 0.00 0.13 0.13 46 1003.9
20260507185319 12 221 4.8 22.5 0.00 0.13 0.13 48 1004.2
20260507184816 11 249 16.1 24.1 0.00 0.13 0.13 47 1004.2
20260507184314 11 274 6.4 17.7 0.00 0.13 0.13 45 1004.1
20260507183810 11 282 14.5 27.4 0.00 0.13 0.13 48 1004.2
20260507183307 11 250 4.8 9.7 0.00 0.13 0.13 48 1004.2
20260507182805 12 319 1.6 11.3 0.00 0.13 0.13 52 1004.1
20260507182300 11 285 14.5 22.5 0.00 0.13 0.13 48 1004.1
20260507181757 11 256 8.0 20.9 0.00 0.13 0.13 51 1004.2
20260507181253 12 242 8.0 12.9 0.00 0.13 0.13 47 1004.3
20260507180750 12 98 3.2 12.9 0.00 0.13 0.13 51 1004.3
20260507180247 12 275 3.2 24.1 0.00 0.13 0.13 53 1004.1
20260507175742 11 294 14.5 25.7 0.00 0.13 0.13 49 1004.4
20260507175239 11 277 11.3 17.7 0.00 0.13 0.13 50 1004.1
20260507174736 11 348 4.8 20.9 0.00 0.13 0.13 51 1004.0
20260507174234 11 277 17.7 24.1 0.00 0.13 0.13 50 1004.3
20260507173732 11 279 8.0 11.3 0.00 0.13 0.13 59 1004.3
20260507173228 11 301 6.4 12.9 0.00 0.13 0.13 58 1004.4
20260507172725 11 183 6.4 14.5 0.00 0.13 0.13 60 1004.4
20260507172222 10 189 4.8 14.5 0.00 0.13 0.13 58 1004.5
20260507171722 11 201 4.8 14.5 0.00 0.13 0.13 60 1004.6
20260507171220 10 286 6.4 12.9 0.00 0.13 0.13 55 1004.8
20260507170716 10 40 1.6 9.7 0.00 0.13 0.13 59 1004.7
20260507170214 11 320 6.4 14.5 0.00 0.13 0.13 65 1004.9
20260507165709 10 326 6.4 12.9 0.00 0.13 0.13 70 1004.7
20260507165205 10 317 6.4 12.9 0.00 0.13 0.13 70 1004.9
20260507164701 10 276 9.7 14.5 0.00 0.13 0.13 72 1005.0
20260507164159 10 280 6.4 20.9 0.00 0.13 0.13 73 1005.0
20260507163655 9 301 9.7 20.9 0.00 0.13 0.13 77 1004.8
20260507163148 10 166 3.2 6.4 0.00 0.13 0.13 84 1005.0
20260507162644 9 292 1.6 3.2 0.00 0.13 0.13 89 1005.3
20260507162140 9 11 0.0 1.6 0.00 0.13 0.13 87 1005.2
20260507161637 9 339 1.6 3.2 0.00 0.13 0.13 93 1005.0
20260507161133 8 120 3.2 6.4 0.00 0.13 0.13 91 1005.5
20260507160630 8 211 3.2 6.4 0.00 0.13 0.13 90 1005.3
20260507160126 8 250 0.0 3.2 0.00 0.13 0.13 96 1005.4
20260507155621 7 156 3.2 4.8 0.00 0.13 0.13 96 1005.4
20260507155118 7 34 0.0 4.8 0.00 0.13 0.13 99 1005.5
20260507154615 7 81 4.8 6.4 0.00 0.13 0.13 99 1005.8
20260507154112 7 84 3.2 3.2 0.00 0.13 0.13 99 1005.7
20260507153608 6 342 3.2 3.2 0.00 0.13 0.13 99 1005.5
20260507153105 6 340 3.2 4.8 0.00 0.13 0.13 99 1005.7
20260507152601 6 343 3.2 3.2 0.00 0.13 0.13 99 1005.7
20260507152057 6 18 3.2 3.2 0.00 0.13 0.13 99 1005.8
20260507151554 6 343 3.2 4.8 0.00 0.13 0.13 99 1005.9
20260507151051 6 353 4.8 4.8 0.00 0.13 0.13 99 1005.9
20260507150548 6 57 0.0 1.6 0.00 0.13 0.13 99 1005.9
20260507150045 6 271 3.2 4.8 0.00 0.13 0.13 99 1005.8
20260507145540 6 149 3.2 4.8 0.18 0.13 0.13 99 1005.7
20260507145038 5 161 3.2 4.8 0.61 0.13 0.13 99 1005.9
20260507144534 6 187 3.2 11.3 0.30 0.08 0.08 99 1005.9
20260507144032 6 300 1.6 4.8 0.18 0.03 0.03 98 1005.9
20260507143528 6 312 0.0 3.2 0.18 0.03 0.03 95 1005.7
20260507143026 6 284 3.2 4.8 0.00 0.00 0.00 94 1005.6
20260507142522 6 287 3.2 4.8 0.00 0.00 0.00 96 1005.7
20260507142019 6 318 1.6 3.2 0.00 0.00 0.00 95 1005.7
20260507141515 7 272 4.8 4.8 0.00 0.00 0.00 94 1005.6
20260507141012 7 323 0.0 4.8 0.00 0.00 0.00 94 1005.7
20260507140508 7 301 1.6 3.2 0.00 0.00 0.00 93 1005.7
20260507140006 7 240 3.2 4.8 0.00 0.00 0.00 94 1005.7
20260507135502 7 266 0.0 1.6 0.00 0.00 0.00 96 1005.7
20260507134954 6 281 0.0 3.2 0.00 0.00 0.00 96 1005.8
20260507134450 6 190 1.6 3.2 0.00 0.00 0.00 96 1005.8
20260507133946 6 167 3.2 4.8 0.00 0.00 0.00 95 1005.7
20260507133442 6 175 3.2 3.2 0.00 0.00 0.00 94 1005.7
20260507132941 6 138 0.0 3.2 0.00 0.00 0.00 94 1006.0
20260507132436 6 241 3.2 4.8 0.00 0.00 0.00 94 1006.0
20260507131933 6 258 3.2 3.2 0.00 0.00 0.00 95 1006.1
20260507131430 6 270 0.0 1.6 0.00 0.00 0.00 96 1006.1
20260507130927 6 244 1.6 3.2 0.00 0.00 0.00 96 1006.0
20260507130424 6 218 0.0 3.2 0.00 0.00 0.00 98 1006.0
20260507125923 6 229 1.6 1.6 0.00 0.00 0.00 98 1006.2
20260507125421 6 246 1.6 3.2 0.00 0.00 0.00 99 1006.1
20260507124918 6 308 0.0 1.6 0.00 0.00 0.00 99 1006.1
20260507124413 6 275 0.0 0.0 0.00 0.00 0.00 99 1006.1
20260507123912 6 290 0.0 3.2 0.00 0.00 0.00 99 1006.1
20260507123409 6 216 1.6 1.6 0.00 0.00 0.00 99 1005.9
20260507122905 6 277 0.0 0.0 0.00 0.00 0.00 99 1005.9
20260507122400 6 284 0.0 0.0 0.00 0.00 0.00 99 1006.0
20260507121857 5 204 0.0 3.2 0.00 0.00 0.00 99 1006.1
20260507121352 5 297 0.0 0.0 0.00 0.00 0.00 99 1006.1
20260507120850 5 347 0.0 0.0 0.00 0.00 0.00 99 1006.0
20260507120346 5 258 0.0 0.0 0.00 0.00 0.00 99 1006.0
20260507115842 5 276 0.0 0.0 0.00 0.00 0.00 99 1005.8
20260507115337 5 73 0.0 0.0 0.00 0.00 0.00 99 1006.0
20260507114834 5 81 0.0 1.6 0.00 0.00 0.00 99 1006.0
20260507114331 5 38 0.0 0.0 0.00 0.00 0.00 99 1006.0
20260507113828 5 33 0.0 0.0 0.00 0.00 0.00 99 1005.9
20260507113325 5 283 0.0 1.6 0.00 0.00 0.00 99 1006.0
20260507112823 5 250 1.6 1.6 0.00 0.00 0.00 99 1006.0
20260507112320 5 230 0.0 1.6 0.00 0.00 0.00 99 1006.1
20260507111818 5 199 1.6 1.6 0.00 0.00 0.00 99 1006.0
20260507111314 5 197 0.0 0.0 0.00 0.00 0.00 99 1006.1
20260507110810 5 264 0.0 0.0 0.00 0.00 0.00 99 1006.1
20260507110306 5 86 0.0 0.0 0.00 0.00 0.00 99 1006.0
20260507105803 5 89 3.2 3.2 0.00 0.00 0.00 99 1006.1
20260507105259 5 95 1.6 3.2 0.00 0.00 0.00 99 1006.1
20260507104757 5 26 0.0 0.0 0.00 0.00 0.00 99 1006.3
20260507104253 5 159 0.0 0.0 0.00 0.00 0.00 99 1006.3
20260507103749 5 73 0.0 1.6 0.00 0.00 0.00 99 1006.0
20260507103240 4 73 0.0 0.0 0.00 0.00 0.00 99 1006.1
20260507102736 4 73 0.0 0.0 0.00 0.00 0.00 99 1006.0
20260507102233 4 73 0.0 0.0 0.00 0.00 0.00 99 1005.8
20260507101729 3 262 0.0 0.0 0.00 0.00 0.00 99 1005.9
20260507101225 3 267 0.0 0.0 0.00 0.00 0.00 99 1006.1
20260507100722 4 271 0.0 1.6 0.00 0.00 0.00 99 1006.0
20260507100220 4 239 1.6 1.6 0.00 0.00 0.00 99 1006.0
20260507095718 4 228 1.6 1.6 0.00 0.00 0.00 99 1005.8
20260507095214 4 197 1.6 1.6 0.00 0.00 0.00 99 1005.6
20260507094711 4 70 0.0 0.0 0.00 0.00 0.00 99 1005.7
20260507094208 4 80 0.0 1.6 0.00 0.00 0.00 99 1005.6
20260507093705 4 67 0.0 0.0 0.00 0.00 0.00 99 1005.8
20260507093203 4 101 0.0 0.0 0.00 0.00 0.00 99 1005.9
20260507092700 4 62 0.0 0.0 0.00 0.00 0.00 99 1005.8
20260507092156 4 350 0.0 0.0 0.00 0.00 0.00 99 1005.8
20260507091653 4 21 0.0 0.0 0.00 0.00 0.00 99 1005.9
20260507091149 4 111 0.0 1.6 0.00 0.00 0.00 99 1006.0
20260507090645 4 118 1.6 3.2 0.00 0.00 0.00 99 1005.7
20260507090142 4 247 0.0 0.0 0.00 0.00 0.00 99 1005.8
20260507085639 4 206 0.0 0.0 0.00 0.00 0.00 99 1005.9
20260507085136 4 186 0.0 1.6 0.00 0.00 0.00 99 1005.9
20260507084633 4 242 0.0 1.6 0.00 0.00 0.00 99 1005.9
20260507084130 3 276 0.0 0.0 0.00 0.00 0.00 99 1006.1
20260507083626 4 276 0.0 0.0 0.00 0.00 0.00 99 1006.0
20260507083123 4 251 0.0 0.0 0.00 0.00 0.00 99 1006.0
20260507082619 4 250 0.0 0.0 0.00 0.00 0.00 99 1005.7
20260507082116 4 279 0.0 0.0 0.00 0.00 0.00 99 1005.7
20260507081612 4 279 0.0 0.0 0.00 0.00 0.00 99 1005.6
20260507081109 4 278 0.0 0.0 0.00 0.00 0.00 99 1005.7
20260507080605 4 278 0.0 0.0 0.00 0.00 0.00 99 1005.5
20260507075556 4 164 0.0 0.0 0.00 0.00 0.00 99 1005.5
20260507075053 5 164 0.0 0.0 0.00 0.00 0.00 99 1005.5
20260507074550 5 164 0.0 1.6 0.00 0.00 0.00 99 1005.6
20260507074048 5 155 3.2 3.2 0.00 0.00 0.00 99 1005.7
20260507073544 5 127 1.6 4.8 0.00 0.00 0.00 99 1005.5
20260507073041 5 77 0.0 0.0 0.00 0.00 0.00 99 1005.5
20260507072538 5 302 0.0 0.0 0.00 0.00 0.00 99 1005.7
20260507072035 5 283 0.0 0.0 0.00 0.00 0.00 99 1005.7
20260507071533 5 220 0.0 0.0 0.00 0.00 0.00 99 1005.8
20260507071029 5 273 0.0 0.0 0.00 0.00 0.00 99 1005.5
20260507070527 5 199 3.2 4.8 0.00 0.00 0.00 99 1005.7
20260507070024 5 281 0.0 0.0 0.00 0.00 0.00 99 1005.4
20260507065520 4 280 0.0 0.0 0.00 0.00 0.00 99 1005.4
20260507065017 5 281 0.0 0.0 0.00 0.00 0.00 99 1005.5
20260507064515 5 280 0.0 0.0 0.00 0.00 0.00 99 1005.7
20260507064013 4 281 0.0 0.0 0.00 0.00 0.00 99 1005.5
20260507063510 5 281 0.0 0.0 0.00 0.00 0.00 99 1005.5
20260507063007 5 281 0.0 0.0 0.00 0.00 0.00 99 1005.8
20260507062504 5 281 0.0 0.0 0.00 0.00 0.00 99 1005.8
20260507062001 5 280 0.0 0.0 0.00 0.00 0.00 99 1006.0
20260507061459 5 280 0.0 0.0 0.00 0.00 0.00 99 1005.5
20260507060957 5 279 0.0 0.0 0.00 0.00 0.00 99 1005.4
20260507060454 5 273 0.0 0.0 0.00 0.00 0.00 99 1005.3
20260507055950 5 358 0.0 0.0 0.00 0.00 0.00 99 1005.2
20260507055446 5 325 0.0 0.0 0.00 0.00 0.00 99 1005.6
20260507054943 5 325 0.0 0.0 0.00 0.00 0.00 99 1005.6
20260507054439 5 325 0.0 0.0 0.00 0.00 0.00 99 1005.6
20260507053936 5 300 0.0 0.0 0.00 0.00 0.00 99 1005.8
20260507053433 5 307 0.0 0.0 0.00 0.00 0.00 99 1005.5
20260507052932 5 339 0.0 0.0 0.00 0.00 0.00 99 1005.6
20260507052429 5 5 1.6 3.2 0.00 0.00 0.00 99 1005.6
20260507051926 5 344 1.6 1.6 0.00 0.00 0.00 99 1005.6
20260507051424 5 1 0.0 1.6 0.00 0.00 0.00 99 1005.7
20260507050920 5 10 1.6 3.2 0.00 0.00 0.00 99 1005.8
20260507050417 5 352 1.6 3.2 0.00 0.00 0.00 99 1005.7
20260507045914 5 353 1.6 4.8 0.00 0.00 0.00 99 1005.6
20260507045410 5 336 3.2 3.2 0.00 0.00 0.00 99 1005.7
20260507044908 5 357 3.2 3.2 0.00 0.00 0.00 99 1005.6
20260507044404 5 293 0.0 1.6 0.00 0.00 0.00 99 1005.7
20260507043900 5 329 3.2 3.2 0.00 0.00 0.00 99 1005.6
20260507043352 6 327 1.6 3.2 0.00 0.00 0.00 99 1005.5
20260507042848 6 323 4.8 6.4 0.00 0.00 0.00 99 1005.8
20260507042344 6 315 0.0 1.6 0.00 0.00 0.00 99 1005.6
20260507041841 6 310 3.2 3.2 0.00 0.00 0.00 99 1005.9
20260507041337 5 298 1.6 3.2 0.00 0.00 0.00 99 1005.8
20260507040835 5 346 0.0 0.0 0.00 0.00 0.00 99 1005.6
20260507040330 6 54 1.6 1.6 0.00 0.00 0.00 99 1005.5
20260507035826 6 313 0.0 0.0 0.00 2.62 2.62 99 1006.0
20260507035322 6 304 0.0 0.0 0.13 2.62 2.62 99 1006.0
20260507034820 6 308 1.6 1.6 0.13 2.62 2.62 99 1005.8
20260507034316 6 286 1.6 3.2 0.00 2.59 2.59 99 1005.7
20260507033814 6 352 0.0 3.2 0.00 2.59 2.59 99 1005.6
20260507033312 6 359 0.0 3.2 0.00 2.59 2.59 99 1005.8
20260507032809 6 19 0.0 0.0 0.00 2.59 2.59 99 1005.9
20260507032306 6 317 0.0 0.0 0.00 2.59 2.59 99 1006.2
20260507031801 6 353 1.6 4.8 0.18 2.59 2.59 99 1006.0
20260507031258 6 332 0.0 0.0 0.18 2.59 2.59 99 1006.2
20260507030755 6 349 0.0 0.0 0.00 2.57 2.57 99 1006.2
20260507030252 6 323 0.0 0.0 0.18 2.57 2.57 99 1006.3
20260507025749 6 305 0.0 1.6 0.18 2.57 2.57 99 1006.4
20260507025246 6 322 0.0 0.0 0.00 2.54 2.54 99 1006.4
20260507024745 6 309 0.0 0.0 0.13 2.54 2.54 99 1006.4
20260507024241 6 347 1.6 3.2 0.13 2.54 2.54 99 1006.4
20260507023737 6 354 0.0 0.0 0.18 2.51 2.51 99 1006.4
20260507023234 6 339 0.0 0.0 0.18 2.51 2.51 99 1006.7
20260507022731 6 322 0.0 0.0 0.30 2.49 2.49 99 1006.6
20260507022227 6 345 0.0 3.2 0.30 2.49 2.49 99 1006.3
20260507021724 6 334 1.6 1.6 0.00 2.44 2.44 99 1006.3
20260507021219 6 338 0.0 1.6 0.13 2.44 2.44 99 1006.2
20260507020718 6 342 1.6 3.2 0.13 2.44 2.44 99 1006.1
20260507020214 6 348 0.0 1.6 0.00 2.41 2.41 99 1006.2
20260507015712 6 357 0.0 1.6 0.18 2.41 2.41 99 1006.3
20260507015209 6 348 1.6 1.6 0.18 2.41 2.41 99 1005.9
20260507014705 6 352 0.0 3.2 0.00 2.39 2.39 99 1005.9
20260507014201 6 15 1.6 3.2 0.13 2.39 2.39 99 1005.8
20260507013658 6 333 3.2 3.2 0.13 2.39 2.39 99 1006.1
20260507013155 6 354 0.0 1.6 0.00 2.36 2.36 99 1005.9
20260507012653 6 14 1.6 3.2 0.18 2.36 2.36 99 1006.2
20260507012148 6 340 1.6 4.8 0.18 2.36 2.36 99 1006.1
20260507011647 6 4 0.0 3.2 0.00 2.34 2.34 99 1005.9
20260507011142 6 331 1.6 3.2 0.13 2.34 2.34 99 1005.7
20260507010637 6 9 1.6 6.4 0.13 2.34 2.34 99 1005.6
20260507010133 6 346 1.6 3.2 0.00 2.31 2.31 99 1005.6
20260507005631 6 356 3.2 4.8 0.18 2.31 2.31 99 1005.7
20260507005127 6 332 4.8 4.8 0.18 2.31 2.31 99 1005.2
20260507004625 6 3.2 6.4 0.13 2.29 2.29 99 1005.3
20260507004122 6 350 4.8 6.4 0.30 2.29 2.29 99 1005.3
20260507003617 6 3 0.0 0.0 0.18 2.26 2.26 99 1005.4
20260507003112 6 323 1.6 3.2 0.00 2.24 2.24 99 1005.1
20260507002609 6 11 1.6 3.2 0.18 2.24 2.24 99 1005.2
20260507002105 6 335 3.2 3.2 0.18 2.24 2.24 99 1005.3
20260507001602 6 7 1.6 4.8 0.00 2.21 2.21 99 1005.1
20260507001059 6 359 4.8 6.4 0.00 2.21 2.21 99 1005.2
20260507000555 6 346 3.2 4.8 0.00 2.21 2.21 99 1004.9
20260507000051 6 346 3.2 4.8 0.13 2.21 2.21 99 1004.9
20260506235549 6 347 3.2 4.8 0.13 2.21 2.21 99 1005.0
20260506235044 6 348 1.6 4.8 0.00 2.18 2.18 99 1005.0
20260506234542 6 14 6.4 9.7 0.18 2.18 2.18 99 1005.1
20260506234039 6 294 3.2 4.8 0.18 2.18 2.18 99 1005.2
20260506233536 7 332 1.6 1.6 0.00 2.16 2.16 99 1005.2
20260506233032 7 327 1.6 3.2 0.00 2.16 2.16 99 1004.7
20260506232529 7 2 1.6 4.8 0.00 2.16 2.16 99 1004.6
20260506232024 7 352 6.4 6.4 0.13 2.16 2.16 99 1004.6
20260506231522 7 348 8.0 9.7 0.13 2.16 2.16 99 1004.8
20260506231020 7 350 3.2 4.8 0.00 2.13 2.13 99 1004.7
20260506230516 7 8 6.4 6.4 0.00 2.13 2.13 99 1004.5
20260506230014 7 310 4.8 4.8 0.00 2.13 2.13 99 1004.5
20260506225510 7 328 4.8 4.8 0.00 2.13 2.13 99 1004.5
20260506225006 7 336 3.2 4.8 0.00 2.13 2.13 99 1004.4
20260506224503 7 307 0.0 3.2 0.00 2.13 2.13 99 1004.4
20260506224000 7 320 3.2 4.8 0.18 2.13 2.13 99 1004.2
20260506223456 7 318 3.2 4.8 0.18 2.13 2.13 99 1004.4
20260506222953 7 349 1.6 6.4 0.00 2.11 2.11 99 1004.3
20260506222450 7 356 4.8 9.7 0.00 2.11 2.11 99 1004.4
20260506221946 7 4 6.4 9.7 0.30 2.11 2.11 99 1004.4
20260506221443 7 17 4.8 6.4 0.43 2.11 2.11 99 1004.4
20260506220936 7 35 6.4 9.7 0.43 2.06 2.06 99 1004.6
20260506220431 7 349 3.2 12.9 0.43 2.01 2.01 99 1004.4
20260506215928 7 9 6.4 11.3 0.66 1.98 1.98 99 1004.6
20260506215424 7 339 6.4 12.9 0.79 1.93 1.93 99 1004.7
20260506214920 7 325 9.7 12.9 0.48 1.85 1.85 99 1004.3
20260506214417 7 4 6.4 17.7 0.30 1.80 1.80 99 1004.2
20260506213915 7 356 6.4 9.7 0.13 1.78 1.78 99 1004.0
20260506213412 8 286 6.4 11.3 0.18 1.75 1.75 99 1004.0
20260506212910 8 3 3.2 6.4 0.30 1.75 1.75 99 1004.2
20260506212405 8 359 4.8 9.7 0.43 1.73 1.73 99 1004.0
20260506211900 8 356 3.2 9.7 0.48 1.70 1.70 99 1003.6
20260506211357 8 337 4.8 6.4 0.18 1.65 1.65 99 1003.9
20260506210854 8 349 6.4 11.3 0.00 1.63 1.63 99 1003.6
20260506210350 8 347 4.8 6.4 0.00 1.63 1.63 99 1003.4
20260506205842 8 17 3.2 4.8 0.13 1.63 1.63 99 1003.4
20260506205338 8 7 4.8 9.7 0.18 1.60 1.60 99 1003.4
20260506204834 8 12 6.4 9.7 0.18 1.60 1.60 99 1003.2
20260506204332 8 332 9.7 14.5 0.00 1.57 1.57 99 1003.4
20260506203830 9 343 9.7 14.5 0.00 1.57 1.57 99 1003.4
20260506203327 9 2 4.8 9.7 0.00 1.57 1.57 99 1003.1
20260506202823 9 323 6.4 9.7 0.00 1.57 1.57 99 1003.3
20260506202320 9 355 6.4 6.4 0.00 1.57 1.57 99 1003.4
20260506201816 9 357 6.4 9.7 0.00 1.57 1.57 99 1003.4
20260506201314 9 328 8.0 9.7 0.00 1.57 1.57 99 1003.3
20260506200810 9 295 3.2 12.9 0.00 1.57 1.57 99 1003.5
20260506200306 10 354 4.8 9.7 0.00 1.57 1.57 99 1003.4
20260506195803 10 10 3.2 6.4 0.00 1.57 1.57 99 1003.4
20260506195300 10 300 6.4 6.4 0.00 1.57 1.57 99 1003.3
20260506194757 10 341 1.6 3.2 0.18 1.57 1.57 99 1003.2
20260506194253 10 269 3.2 14.5 0.18 1.57 1.57 99 1003.5
20260506193752 11 14 3.2 4.8 0.00 1.55 1.55 99 1003.4
20260506193248 11 305 3.2 9.7 0.13 1.55 1.55 99 1003.6
20260506192744 12 358 3.2 6.4 0.13 1.55 1.55 99 1003.6
20260506192241 12 306 3.2 3.2 0.18 1.52 1.52 99 1003.5